Weather History for Grand Marais Airport, MN

Change the Weather History Date:

Thursday, June 28, 2012

  Actual Average Record
Temperature  
Mean Temperature 70 °F -  
Max Temperature 82 °F 68 °F 84 °F (2002)
Min Temperature 59 °F 48 °F 35 °F (2003)
Cooling Degree Days 6    
Growing Degree Days 20 (Base 50)    
Moisture  
Dew Point 50 °F    
Average Humidity 49    
Maximum Humidity 83    
Minimum Humidity 26    
Precipitation  
Precipitation 0.00 in - - ()
Sea Level Pressure  
Sea Level Pressure 29.79 in    
Wind  
Wind Speed 7 mph (West)    
Max Wind Speed 16 mph    
Max Gust Speed 25 mph    
Visibility 10 miles    
Events      
Averages and records for this station are not official NWS values.
T = Trace of Precipitation, MM = Missing Value Source: NWS Daily Summary

Daily Weather History Graph

Daily Weather History Graph

Search for Another Location

Airport:

Trip Planner

Search our weather history database for the weather conditions in past years. The results will help you decide how hot, cold, wet, or windy it might be!

Date:

Astronomy

Jun. 28, 2012 Rise Set
Actual Time 5:05 AM CDT 9:04 PM CDT
Civil Twilight 4:24 AM CDT 9:45 PM CDT
Nautical Twilight 3:27 AM CDT 10:41 PM CDT
Astronomical Twilight 1:55 AM CDT 12:12 AM CDT
Moon 3:25 PM CDT (6/28) 12:54 AM CDT (6/28)
Length of Visible Light 17h 20m
Length of Day
15h 58m
Waxing Gibbous, 67% of the Moon is Illuminated
Jun 28
Waxing Gibbous
Jul 3
Full
Jul 10
Last Quarter
Jul 18
New
Jul 26
First Quarter

Hourly Weather History & Observations

Time (CDT) Temp. Dew Point Humidity Pressure Visibility Wind Dir Wind Speed Gust Speed Precip Events Conditions
12:14 AM 60.8 °F 53.6 °F 77% 29.77 in 10.0 mi Calm Calm - N/A   Clear
12:34 AM 59.0 °F 53.6 °F 82% 29.76 in 10.0 mi Calm Calm - N/A   Clear
12:53 AM 59.0 °F 53.6 °F 82% 29.76 in 10.0 mi Calm Calm - N/A   Clear
1:14 AM 60.8 °F 53.6 °F 77% 29.75 in 10.0 mi Calm Calm - N/A   Clear
1:33 AM 60.8 °F 53.6 °F 77% 29.77 in 10.0 mi WSW 3.5 mph - N/A   Clear
1:53 AM 64.4 °F 57.2 °F 77% 29.77 in 10.0 mi West 5.8 mph - N/A   Clear
2:14 AM 66.2 °F 60.8 °F 83% 29.78 in 10.0 mi West 6.9 mph - N/A   Clear
2:33 AM 69.8 °F 62.6 °F 78% 29.77 in 10.0 mi WNW 6.9 mph - N/A   Clear
2:53 AM 69.8 °F 64.4 °F 83% 29.77 in 10.0 mi West 8.1 mph - N/A   Scattered Clouds
3:14 AM 71.6 °F 64.4 °F 78% 29.73 in 10.0 mi NW 5.8 mph - N/A   Scattered Clouds
3:34 AM 71.6 °F 64.4 °F 78% 29.76 in 10.0 mi WNW 6.9 mph - N/A   Clear
3:53 AM 71.6 °F 64.4 °F 78% 29.77 in 10.0 mi WNW 6.9 mph - N/A   Clear
4:14 AM 69.8 °F 64.4 °F 83% 29.77 in 10.0 mi WNW 4.6 mph - N/A   Clear
4:34 AM 69.8 °F 64.4 °F 83% 29.78 in 10.0 mi WNW 6.9 mph - N/A   Clear
4:53 AM 69.8 °F 62.6 °F 78% 29.78 in 10.0 mi WNW 6.9 mph - N/A   Clear
5:14 AM 69.8 °F 60.8 °F 73% 29.78 in 10.0 mi NW 8.1 mph - N/A   Clear
5:33 AM 69.8 °F 59.0 °F 68% 29.78 in 10.0 mi NW 8.1 mph - N/A   Clear
5:54 AM 68.0 °F 57.2 °F 68% 29.78 in 10.0 mi NW 9.2 mph - N/A   Clear
6:14 AM 66.2 °F 55.4 °F 68% 29.78 in 10.0 mi WNW 8.1 mph 16.1 mph N/A   Clear
6:33 AM 68.0 °F 53.6 °F 60% 29.79 in 10.0 mi WNW 10.4 mph 20.7 mph N/A   Clear
6:54 AM 66.2 °F 51.8 °F 60% 29.79 in 10.0 mi NW 11.5 mph 18.4 mph N/A   Clear
7:13 AM 66.2 °F 51.8 °F 60% 29.80 in 10.0 mi WNW 10.4 mph 18.4 mph N/A   Clear
7:34 AM 66.2 °F 50.0 °F 56% 29.80 in 10.0 mi NW 11.5 mph 21.9 mph N/A   Clear
7:53 AM 66.2 °F 48.2 °F 52% 29.80 in 10.0 mi NW 16.1 mph 25.3 mph N/A   Clear
8:13 AM 66.2 °F 48.2 °F 52% 29.81 in 10.0 mi NW 12.7 mph 23.0 mph N/A   Clear
8:34 AM 66.2 °F 48.2 °F 52% 29.81 in 10.0 mi NW 10.4 mph 24.2 mph N/A   Clear
8:53 AM 68.0 °F 48.2 °F 49% 29.81 in 10.0 mi NW 9.2 mph 20.7 mph N/A   Clear
9:13 AM 68.0 °F 48.2 °F 49% 29.81 in 10.0 mi WNW 9.2 mph 25.3 mph N/A   Clear
9:34 AM 68.0 °F 48.2 °F 49% 29.80 in 10.0 mi WNW 9.2 mph 19.6 mph N/A   Clear
9:54 AM 69.8 °F 48.2 °F 46% 29.80 in 10.0 mi WNW 9.2 mph 16.1 mph N/A   Clear
10:14 AM 69.8 °F 50.0 °F 49% 29.82 in 10.0 mi West 9.2 mph - N/A   Unknown
10:34 AM 71.6 °F 48.2 °F 43% 29.82 in 10.0 mi West 10.4 mph 16.1 mph N/A   Clear
10:53 AM 71.6 °F 48.2 °F 43% 29.83 in 10.0 mi West 11.5 mph 16.1 mph N/A   Clear
11:14 AM 71.6 °F 44.6 °F 38% 29.83 in 10.0 mi WNW 15.0 mph 20.7 mph N/A   Clear
11:34 AM 73.4 °F 46.4 °F 38% 29.82 in 10.0 mi West 10.4 mph 19.6 mph N/A   Unknown
11:54 AM 75.2 °F 46.4 °F 36% 29.82 in 10.0 mi West 9.2 mph 19.6 mph N/A   Clear
12:13 PM 75.2 °F 42.8 °F 31% 29.82 in 10.0 mi West 11.5 mph 23.0 mph N/A   Clear
12:33 PM 77.0 °F 44.6 °F 32% 29.82 in 10.0 mi WNW 11.5 mph 21.9 mph N/A   Clear
12:54 PM 78.8 °F 44.6 °F 30% 29.82 in 10.0 mi West 12.7 mph 24.2 mph N/A   Clear
1:14 PM 78.8 °F 44.6 °F 30% 29.82 in 10.0 mi West 9.2 mph 20.7 mph N/A   Clear
1:33 PM 78.8 °F 44.6 °F 30% 29.82 in 10.0 mi WSW 12.7 mph 21.9 mph N/A   Clear
1:54 PM 80.6 °F 44.6 °F 28% 29.81 in 10.0 mi WSW 11.5 mph 20.7 mph N/A   Clear
2:14 PM 80.6 °F 44.6 °F 28% 29.81 in 10.0 mi WSW 10.4 mph 21.9 mph N/A   Clear
2:33 PM 80.6 °F 44.6 °F 28% 29.81 in 10.0 mi WSW 6.9 mph 24.2 mph N/A   Clear
2:53 PM 80.6 °F 42.8 °F 26% 29.82 in 10.0 mi West 11.5 mph 24.2 mph N/A   Clear
3:13 PM 80.6 °F 42.8 °F 26% 29.81 in 10.0 mi West 13.8 mph 25.3 mph N/A   Clear
3:33 PM 80.6 °F 44.6 °F 28% 29.80 in 10.0 mi WSW 9.2 mph 17.3 mph N/A   Clear
3:53 PM 82.4 °F 46.4 °F 28% 29.80 in 10.0 mi WSW 8.1 mph 20.7 mph N/A   Clear
4:13 PM 80.6 °F 42.8 °F 26% 29.80 in 10.0 mi WSW 15.0 mph 23.0 mph N/A   Clear
4:33 PM 80.6 °F 42.8 °F 26% 29.80 in 10.0 mi WSW 13.8 mph 24.2 mph N/A   Clear
4:53 PM 80.6 °F 44.6 °F 28% 29.80 in 10.0 mi WSW 10.4 mph 16.1 mph N/A   Clear
5:13 PM 80.6 °F 42.8 °F 26% 29.79 in 10.0 mi West 10.4 mph 20.7 mph N/A   Clear
5:33 PM 80.6 °F 42.8 °F 26% 29.79 in 10.0 mi WSW 12.7 mph 23.0 mph N/A   Clear
5:54 PM 78.8 °F 42.8 °F 28% 29.78 in 10.0 mi SW 12.7 mph 20.7 mph N/A   Clear
6:13 PM 78.8 °F 44.6 °F 30% 29.78 in 10.0 mi WSW 12.7 mph 21.9 mph N/A   Clear
6:33 PM 78.8 °F 44.6 °F 30% 29.78 in 10.0 mi West 10.4 mph 21.9 mph N/A   Clear
6:54 PM 78.8 °F 44.6 °F 30% 29.78 in 10.0 mi West 4.6 mph 16.1 mph N/A   Clear
7:13 PM 77.0 °F 44.6 °F 32% 29.78 in 10.0 mi WSW 12.7 mph 21.9 mph N/A   Clear
7:33 PM 75.2 °F 46.4 °F 36% 29.79 in 10.0 mi WSW 8.1 mph 21.9 mph N/A   Clear
7:54 PM 73.4 °F 46.4 °F 38% 29.79 in 10.0 mi West 11.5 mph 24.2 mph N/A   Clear
8:13 PM 73.4 °F 44.6 °F 36% 29.79 in 10.0 mi WSW 9.2 mph 24.2 mph N/A   Clear
8:33 PM 73.4 °F 46.4 °F 38% 29.79 in 10.0 mi WSW 8.1 mph 16.1 mph N/A   Clear
8:54 PM 71.6 °F 46.4 °F 41% 29.79 in 10.0 mi WSW 5.8 mph - N/A   Clear
9:14 PM 69.8 °F 46.4 °F 43% 29.79 in 10.0 mi WSW 8.1 mph - N/A   Clear
9:33 PM 69.8 °F 46.4 °F 43% 29.80 in 10.0 mi WSW 5.8 mph - N/A   Clear
9:54 PM 69.8 °F 46.4 °F 43% 29.80 in 10.0 mi WSW 5.8 mph - N/A   Clear
10:13 PM 68.0 °F 46.4 °F 46% 29.80 in 10.0 mi WSW 5.8 mph - N/A   Clear
10:33 PM 66.2 °F 46.4 °F 49% 29.80 in 10.0 mi WSW 5.8 mph - N/A   Clear
10:54 PM 66.2 °F 46.4 °F 49% 29.80 in 7.0 mi WSW 5.8 mph - N/A   Clear
11:33 PM 66.2 °F 46.4 °F 49% 29.80 in 10.0 mi WSW 5.8 mph - N/A   Clear
11:53 PM 66.2 °F 46.4 °F 49% 29.80 in 10.0 mi WSW 4.6 mph - N/A   Clear